{"data":{"norad_id":69769,"epoch":"2026-09-20T04:29:59.785728Z","epoch_age_seconds":53619,"freshness":"FRESH","line1":"1 69769U 26151G   26263.18749752  .00001675  00000+0  24855-3 0  9999","line2":"2 69769  51.9012 230.5773 0000479  62.1910 297.9101 14.79948964 12129","mean_motion":14.79948964,"eccentricity":4.79e-5,"inclination_deg":51.9012,"raan_deg":230.5773,"arg_perigee_deg":62.191,"mean_anomaly_deg":297.9101,"bstar":0.00024855,"rev_number":1212,"period_min":97.300652591963,"perigee_km":629.14957013081,"apogee_km":629.82090034095,"semimajor_km":7007.6222352359,"source":"CELESTRAK","updated_at":"2026-09-20T09:00:25.089235Z"}}